Lake Hood, AK

3:35 PM AKDT on July 27, 2017 (GMT -0800)
Lake Hood

Weather History for PALH - April, 2014

Change the Weather History Date:

Monday, April 7, 2014

  Actual Average Record
Temperature  
Mean Temperature 34 °F -  
Max Temperature 41 °F 38 °F 52 °F (2016)
Min Temperature 30 °F 24 °F 18 °F (1999)
Degree Days  
Heating Degree Days 30    
Moisture  
Dew Point 29 °F    
Average Humidity 79    
Maximum Humidity 93    
Minimum Humidity 43    
Precipitation  
Precipitation 0.03 in - - ()
Sea Level Pressure  
Sea Level Pressure 29.34 in    
Wind  
Wind Speed 4 mph (WNW)    
Max Wind Speed 10 mph    
Max Gust Speed 22 mph    
Visibility 8 miles    
Events Snow    
Averages and records for this station are not official NWS values.
T = Trace of Precipitation, MM = Missing Value Source: NWS Daily Summary

Daily Weather History Graph

Daily Weather History Graph

Search for Another Location

Airport or City:

Trip Planner

Search our weather history database for the weather conditions in past years. The results will help you decide how hot, cold, wet, or windy it might be!

Date:

Astronomy

Apr. 07, 2014 Rise Set
Actual Time 7:03 AM AKDT 9:01 PM AKDT
Civil Twilight 6:17 AM AKDT 9:48 PM AKDT
Nautical Twilight 5:18 AM AKDT 10:48 PM AKDT
Astronomical Twilight 4:02 AM AKDT 12:06 AM AKDT
Moon 12:26 PM AKDT (4/7) 4:30 AM AKDT (4/7)
Length of Visible Light 15h 30m
Length of Day
13h 58m
First Quarter, 55% of the Moon is Illuminated
Apr 7
First Quarter
Apr 14
Full
Apr 21
Last Quarter
Apr 28
New
May 6
First Quarter

Hourly Weather History & Observations

Time (AKDT) Temp. Windchill Dew Point Humidity Pressure Visibility Wind Dir Wind Speed Gust Speed Precip Events Conditions
12:53 AM 37.0 °F 31.0 °F 30.9 °F 79% 29.53 in 10.0 mi SSW 8.1 mph - N/A   Overcast
1:53 AM 37.0 °F - 30.0 °F 76% 29.52 in 10.0 mi Calm Calm - N/A   Overcast
2:53 AM 36.0 °F 32.1 °F 30.9 °F 82% 29.50 in 10.0 mi South 4.6 mph - N/A   Overcast
3:53 AM 36.0 °F 33.3 °F 30.9 °F 82% 29.48 in 10.0 mi South 3.5 mph - N/A   Overcast
4:13 AM 35.6 °F 32.8 °F 30.2 °F 81% 29.47 in 10.0 mi South 3.5 mph - N/A   Overcast
4:53 AM 36.0 °F 33.3 °F 30.9 °F 82% 29.46 in 10.0 mi South 3.5 mph - N/A   Overcast
5:53 AM 36.0 °F - 30.9 °F 82% 29.44 in 10.0 mi Calm Calm - N/A   Overcast
6:53 AM 35.1 °F - 30.9 °F 85% 29.42 in 10.0 mi Calm Calm - 0.00 in   Overcast
7:09 AM 35.6 °F - 32.0 °F 87% 29.41 in 10.0 mi Calm Calm - N/A   Overcast
7:26 AM 35.6 °F - 32.0 °F 87% 29.40 in 10.0 mi Calm Calm - N/A   Overcast
7:53 AM 35.1 °F - 32.0 °F 89% 29.40 in 10.0 mi Calm Calm - N/A   Overcast
8:02 AM 35.6 °F - 32.0 °F 87% 29.39 in 10.0 mi Calm Calm - N/A   Overcast
8:41 AM 33.8 °F - 30.2 °F 87% 29.38 in 4.0 mi Calm Calm - 0.00 in Snow Light Snow
8:53 AM 34.0 °F - 30.9 °F 89% 29.38 in 2.0 mi Calm Calm - 0.01 in Snow Light Snow
9:00 AM 33.8 °F - 30.2 °F 87% 29.37 in 1.5 mi Calm Calm - 0.00 in Snow Light Snow
9:13 AM 33.8 °F - 30.2 °F 87% 29.37 in 3.0 mi Calm Calm - 0.00 in Snow Light Snow
9:31 AM 33.8 °F - 32.0 °F 93% 29.36 in 1.8 mi Calm Calm - 0.01 in Snow Light Snow
9:49 AM 33.8 °F - 30.2 °F 87% 29.35 in 1.0 mi Calm Calm - 0.02 in Snow Light Snow
9:53 AM 34.0 °F - 32.0 °F 92% 29.35 in 1.5 mi Calm Calm - 0.02 in Snow Light Snow
9:58 AM 33.8 °F - 32.0 °F 93% 29.35 in 2.5 mi Calm Calm - 0.00 in Snow Light Snow
10:05 AM 33.8 °F - 32.0 °F 93% 29.35 in 3.0 mi Calm Calm - 0.00 in Snow Light Snow
10:26 AM 33.8 °F 29.6 °F 30.2 °F 87% 29.34 in 10.0 mi NW 4.6 mph - 0.00 in   Overcast
10:53 AM 34.0 °F 29.8 °F 30.9 °F 89% 29.33 in 10.0 mi NW 4.6 mph - 0.00 in   Overcast
11:44 AM 35.6 °F 29.9 °F 30.2 °F 81% 29.32 in 10.0 mi NW 6.9 mph - N/A   Overcast
11:53 AM 35.1 °F 31.0 °F 30.9 °F 85% 29.31 in 10.0 mi NW 4.6 mph - N/A   Overcast
12:16 PM 35.6 °F 29.2 °F 30.2 °F 81% 29.30 in 10.0 mi WNW 8.1 mph - N/A   Overcast
12:53 PM 36.0 °F 30.3 °F 30.0 °F 79% 29.30 in 10.0 mi WNW 6.9 mph - N/A   Overcast
1:23 PM 35.6 °F 29.9 °F 32.0 °F 87% 29.29 in 10.0 mi West 6.9 mph - N/A   Overcast
1:53 PM 37.0 °F 34.5 °F 30.9 °F 79% 29.28 in 10.0 mi West 3.5 mph - N/A   Overcast
2:00 PM 37.4 °F 33.8 °F 30.2 °F 75% 29.28 in 10.0 mi West 4.6 mph - N/A   Overcast
2:41 PM 37.4 °F 32.8 °F 30.2 °F 75% 29.26 in 10.0 mi WNW 5.8 mph - N/A   Overcast
2:53 PM 37.0 °F 32.4 °F 30.9 °F 79% 29.26 in 10.0 mi NW 5.8 mph - N/A   Scattered Clouds
3:41 PM 39.2 °F - 30.2 °F 70% 29.25 in 10.0 mi Calm Calm - N/A   Mostly Cloudy
3:53 PM 39.9 °F - 30.9 °F 70% 29.24 in 10.0 mi Calm Calm - N/A   Overcast
4:20 PM 39.2 °F 35.0 °F 30.2 °F 70% 29.23 in 10.0 mi SSW 5.8 mph - N/A   Overcast
4:53 PM 39.9 °F 35.8 °F 30.9 °F 70% 29.24 in 10.0 mi SSW 5.8 mph - N/A   Overcast
5:23 PM 39.2 °F 35.0 °F 30.2 °F 70% 29.22 in 10.0 mi SW 5.8 mph - N/A   Overcast
5:53 PM 37.9 °F 31.5 °F 30.0 °F 73% 29.23 in 10.0 mi WNW 9.2 mph - N/A   Mostly Cloudy
6:53 PM 36.0 °F 32.1 °F 30.0 °F 79% 29.23 in 10.0 mi WNW 4.6 mph - N/A   Overcast
7:53 PM 37.0 °F 32.4 °F 28.9 °F 73% 29.23 in 10.0 mi WNW 5.8 mph - N/A   Overcast
8:53 PM 35.1 °F 27.9 °F 17.1 °F 48% 29.25 in 10.0 mi North 9.2 mph - N/A   Overcast
9:53 PM 33.1 °F 24.9 °F 17.1 °F 52% 29.27 in 10.0 mi NNE 10.4 mph - N/A   Overcast
10:53 PM 30.9 °F 22.2 °F 12.9 °F 47% 29.29 in 10.0 mi NNE 10.4 mph 21.9 mph N/A   Overcast
11:53 PM 30.0 °F 21.7 °F 10.0 °F 43% 29.30 in 10.0 mi NNE 9.2 mph - N/A   Overcast